WIA666 TNCM-TNCS

Flight info

Callsign WIA666
Flight time 0h 10m
Altitude 3000
Route VFR SABA
Aircraft DHC6/L-SDFGR/C

Departure

Time 2026-05-03 20:24
Airport Princess Juliana International Airport (TNCM)

Arrival

Time 2026-05-03 20:35
Airport Juancho E. Yrausquin Airport (TNCS)
Time Latitude Longitude Altitude Speed Heading
2026-05-03 20:18 18.04204 -63.11061 16 ft 0 kts 169°
2026-05-03 20:21 18.04196 -63.11059 16 ft 3 kts 168°
2026-05-03 20:21 18.04184 -63.11052 16 ft 1 kts 142°
2026-05-03 20:21 18.04183 -63.11052 16 ft 0 kts 147°
2026-05-03 20:21 18.04178 -63.11052 16 ft 3 kts 196°
2026-05-03 20:22 18.04163 -63.11084 16 ft 6 kts 258°
2026-05-03 20:22 18.04161 -63.11101 16 ft 0 kts 261°
2026-05-03 20:23 18.04160 -63.11108 16 ft 5 kts 261°
2026-05-03 20:23 18.04138 -63.11158 16 ft 6 kts 199°
2026-05-03 20:23 18.04114 -63.11156 16 ft 7 kts 165°
2026-05-03 20:23 18.04069 -63.11123 17 ft 9 kts 116°
2026-05-03 20:24 18.04087 -63.10965 16 ft 54 kts 83°
2026-05-03 20:24 18.04174 -63.10385 149 ft 94 kts 82°
2026-05-03 20:24 18.04062 -63.09813 653 ft 82 kts 139°
2026-05-03 20:24 18.03445 -63.09889 898 ft 113 kts 194°
2026-05-03 20:25 18.02590 -63.10207 1032 ft 142 kts 198°
2026-05-03 20:25 18.01670 -63.10635 1255 ft 153 kts 197°
2026-05-03 20:25 18.00641 -63.11003 1477 ft 158 kts 194°
2026-05-03 20:25 17.99597 -63.11372 1729 ft 159 kts 194°
2026-05-03 20:26 17.98535 -63.11744 1982 ft 161 kts 194°
2026-05-03 20:26 17.97479 -63.12126 2247 ft 160 kts 195°
2026-05-03 20:26 17.96435 -63.12519 2504 ft 159 kts 194°
2026-05-03 20:26 17.95398 -63.12907 2769 ft 158 kts 194°
2026-05-03 20:27 17.94362 -63.13301 2988 ft 161 kts 194°
2026-05-03 20:27 17.93264 -63.13711 2992 ft 172 kts 195°
2026-05-03 20:27 17.92120 -63.14126 3012 ft 176 kts 195°
2026-05-03 20:27 17.90971 -63.14541 3121 ft 173 kts 195°
2026-05-03 20:28 17.89837 -63.14946 3269 ft 171 kts 195°
2026-05-03 20:28 17.88714 -63.15350 3411 ft 170 kts 194°
2026-05-03 20:28 17.87596 -63.15755 3494 ft 172 kts 195°
2026-05-03 20:28 17.86449 -63.16167 3502 ft 176 kts 194°
2026-05-03 20:29 17.85285 -63.16586 3516 ft 177 kts 194°
2026-05-03 20:29 17.84107 -63.17008 3512 ft 180 kts 195°
2026-05-03 20:29 17.82925 -63.17427 3512 ft 179 kts 194°
2026-05-03 20:29 17.81743 -63.17852 3516 ft 180 kts 195°
2026-05-03 20:30 17.80558 -63.18270 3517 ft 179 kts 195°
2026-05-03 20:30 17.79372 -63.18677 3514 ft 179 kts 194°
2026-05-03 20:30 17.78587 -63.18950 3518 ft 179 kts 195°
2026-05-03 20:30 17.77409 -63.19362 3515 ft 179 kts 195°
2026-05-03 20:31 17.76236 -63.19790 3506 ft 177 kts 198°
2026-05-03 20:31 17.75102 -63.20344 3346 ft 186 kts 202°
2026-05-03 20:31 17.73913 -63.20964 3035 ft 194 kts 204°
2026-05-03 20:31 17.72754 -63.21649 2800 ft 193 kts 208°
2026-05-03 20:32 17.71595 -63.22400 2477 ft 194 kts 207°
2026-05-03 20:32 17.70513 -63.23080 2616 ft 174 kts 207°
2026-05-03 20:32 17.69588 -63.23678 2704 ft 141 kts 205°
2026-05-03 20:32 17.68726 -63.24131 2332 ft 143 kts 193°
2026-05-03 20:33 17.67713 -63.24350 1757 ft 154 kts 184°
2026-05-03 20:33 17.66691 -63.24416 1317 ft 138 kts 170°
2026-05-03 20:33 17.65906 -63.24229 1093 ft 92 kts 153°
2026-05-03 20:33 17.65433 -63.23947 755 ft 70 kts 130°
2026-05-03 20:34 17.65130 -63.23521 600 ft 74 kts 117°
2026-05-03 20:34 17.64908 -63.23075 416 ft 63 kts 107°
2026-05-03 20:34 17.64780 -63.22680 281 ft 55 kts 105°
2026-05-03 20:34 17.64625 -63.22280 163 ft 55 kts 108°
2026-05-03 20:35 17.64547 -63.22079 132 ft 15 kts 110°
2026-05-03 20:35 17.64495 -63.22034 127 ft 9 kts 193°
2026-05-03 20:35 17.64456 -63.22047 127 ft 2 kts 289°
2026-05-03 20:35 17.64469 -63.22046 128 ft 0 kts 26°
2026-05-03 20:41 17.64469 -63.22007 125 ft 10 kts 111°
2026-05-03 20:41 17.64417 -63.21944 108 ft 12 kts 160°
2026-05-03 20:42 17.64355 -63.21926 88 ft 10 kts 139°
2026-05-03 20:42 17.64340 -63.21911 85 ft 1 kts 137°
2026-05-03 20:42 17.64341 -63.21912 85 ft 4 kts 131°
2026-05-03 20:42 17.64347 -63.21932 86 ft 14 kts 65°
2026-05-03 20:43 17.64382 -63.21831 18 ft 8 kts 263°